Kosmos-1908

operational
NORAD ID: 18748 Int'l Des: 1988-001 Owner: GRU Country: SU
LEOCIRCULARPOLAR

关于 Kosmos-1908

正在加载描述...

实时位置

正在加载3D地球...

即将过境

高度历史

Altitude vs Time

uPlot chart will show altitude changes over time

两行轨道根数

1 18748U 88001A 26062.16206256 .00212441 14824-4 73690-3 0 9994
2 18748 82.4391 108.7199 0003880 212.8645 147.2386 15.89351223 89860
Epoch: Mar 3, 2026 • Age: 18 hours

当前状态

高度 317.7 km
速度 7.72 km/s
星下点 78.72°N, 176.58°E
发射日期 Jan 6, 1988
运行时间 38.1 years
类型 other

技术详情

分类 Payload
质量 1750.00 kg
干质量 1750.00 kg
总质量 1750.00 kg
长度 3.20 m
直径 1.30 m
跨度 13.10 m
形状 Cyl + Ant
制造商 YUZH
平台类型 Tselina-D
阶段状态 In Orbit
所有者/国家 GRU/SU

大型星座

Loading constellations...